Regional Weather Roundup
Issued by NWS

Home | Current Version | Previous Version | Text Only | Print | Product List | Glossary Off
Versions: 1 2 3 4 5 6 7 8 9 10 11 12 13 14 15 16 17 18 19 20 21 22 23 24 25 26 27 28 29 30 31 32 33 34 35 36 37 38 39 40 41 42 43 44 45 46 47 48 49 50

000
ASUS43 KIND 012309
RWRIN

WEATHER ROUNDUP FOR INDIANA
NATIONAL WEATHER SERVICE INDIANAPOLIS IN
700 PM EDT FRI AUG 01 2014

NOTE: "FAIR" INDICATES FEW OR NO CLOUDS BELOW 12,000 FEET WITH NO
SIGNIFICANT WEATHER AND/OR OBSTRUCTIONS TO VISIBILITY.

* - STATION DOES NOT REPORT WEATHER SUCH AS PRECIPITATION OR FOG.

+ - STATION NOT QUALITY CONTROLLED BY THE NATIONAL WEATHER SERVICE.
    USE DATA WITH CAUTION...ESPECIALLY DEWPOINT AND RELATIVE
    HUMIDITY OBSERVATIONS.

INZ001>003-010>013-019-020-020000-
NORTHWEST INDIANA

CITY           SKY/WX    TMP DP  RH WIND       PRES   REMARKS
GARY /AIRPORT/ PTSUNNY   75  57  53 SE5       30.09R
RENSSELAER +   CLOUDY    72  64  78 W3        30.10F
VALPARAISO     PTSUNNY   68  60  75 CALM      30.09R

$$

LMZ046-743>745-020000-
SOUTHERN LAKE MICHIGAN

STATION/POSITION TIME  TEMP WIND        PRES
                       AIR  DIR/SP/G
                 (UTC) (F)  (DEG/KT/KT) (MB)
BURNS HARBOR     2300   77  230/  6/  8   N/A
MICHIGAN CITY    2300   75  250/  7/  9   N/A

$$

INZ004-005-014>016-021>024-020000-
NORTH CENTRAL INDIANA

CITY           SKY/WX    TMP DP  RH WIND       PRES   REMARKS
ELKHART        CLOUDY    72  59  64 NW5       30.08S
GOSHEN         CLOUDY    73  61  65 NE3       30.08R
PERU/GRISSOM   LGT RAIN  72  62  71 N5        30.09R
ROCHESTER +    CLOUDY    79  55  44 SE5       30.09R
SOUTH BEND     PTSUNNY   75  61  61 W3        30.09R

$$

INZ006>009-017-018-025>027-020000-
NORTHEAST INDIANA

CITY           SKY/WX    TMP DP  RH WIND       PRES   REMARKS
ANGOLA *+      SUNNY     77  61  57 CALM      30.08S
FORT WAYNE     PTSUNNY   74  60  61 N6        30.08S
HUNTINGTON +   PTSUNNY   74  56  53 N8        30.08S

$$

INZ028-029-035-036-043>045-051>053-020000-
WEST CENTRAL INDIANA

CITY           SKY/WX    TMP DP  RH WIND       PRES   REMARKS
GREENCASTLE +  PTSUNNY   73  61  64 NE12      30.09R
LAFAYETTE      CLOUDY    69  65  86 CALM      30.09R
TERRE HAUTE    PTSUNNY   78  66  66 N6        30.06S

$$

INZ030>032-037>040-046>048-054>057-064-065-020000-
CENTRAL INDIANA

CITY           SKY/WX    TMP DP  RH WIND       PRES   REMARKS
COLUMBUS       CLOUDY    81  59  47 CALM      30.06R
GREENWOOD *+   CLOUDY    75  63  64 NW10      30.10
INDIANAPOLIS   CLOUDY    68  60  75 NW8       30.08R THUNDER
-EAGLE CREEK   TSTM      68  59  73 NW10      30.09S
KOKOMO *+      CLOUDY    73  61  64 N8        30.09R
MARION +       CLOUDY    75  62  63 NW3       30.09R
MT COMFORT *+  CLOUDY    77  68  73 NW9       30.08S
SHELBYVILLE    PTSUNNY   79  66  64 NW5       30.06S

$$

INZ033-034-041-042-049-050-058-059-020000-
EAST CENTRAL INDIANA

CITY           SKY/WX    TMP DP  RH WIND       PRES   REMARKS
MUNCIE         CLOUDY    70  64  81 W3        30.08S

$$

INZ060-061-067>069-081>083-085>088-020000-
SOUTHWEST INDIANA

CITY           SKY/WX    TMP DP  RH WIND       PRES   REMARKS
EVANSVILLE     SUNNY     85  55  35 E3        30.03S

$$

INZ062-063-066-070>080-084-089>092-020000-
SOUTH CENTRAL AND SOUTHEAST INDIANA

CITY           SKY/WX    TMP DP  RH WIND       PRES   REMARKS
BLOOMINGTON    SUNNY     80  61  52 S3        30.06S

$$



USA.gov is the U.S. government's official web portal to all federal, state and local government web resources and services.